sat.trackr.live / text

‹ back to catalog

ONEWEB-0304

NORAD 49092 · 2021-075T

PAYLOAD ACTIVE UNKNOWN

§ Identity

Operator
Country
UK
Launch date
2021-08-21
Launch site
TYMSC
Launch vehicle
Mass (kg)
RCS (m²)

Purposes: comms

External: N2YO · Heavens-Above · Gunter

§ Orbital elements

Epoch: 2026-09-12T17:20:46.381920Z

Period
109.29 min
Inclination
87.9204°
Eccentricity
0.0001802
Mean motion
13.17650012 rev/d
Perigee alt
1,192.3 km
Apogee alt
1,195.1 km
Semi-major
7,571.8 km
B*
1.3191e-4
RAAN
348.4847°
Arg perigee
105.4518°
Mean anomaly
254.6813°
Rev number
24,510

§ Raw data

ONEWEB-03041 49092U 21075T   26255.72275905  .00000064  00000+0  13191-3 0  99932 49092  87.9204 348.4847 0001802 105.4518 254.6813 13.17650012245106

JSON: /api/v1/satellites/49092 · /tle

For live sub-satellite position, see the globe view (requires WebGL).

§ Visibility from observer

Set your observer location to see the next 7 days of passes ≥ 10°. The values pass through the URL so the page stays shareable.

No JS? Fill the form by hand. The geolocation button needs JavaScript.